CAPSAT (49276 NORAD) Tracking and Keplerian Element Data

This shows tracking and keplerian element data for the satellite.

Feedback or suggestion? Click here.




ElementValue
Catalog49276
NameCAPSAT
Epoch Orbit33
Epoch Day287.03095086
Epoch Year2021
RAAN115.0808
Inclination51.6392
Eccentricity0.0006981
Argument of Perigee142.7079
Mean Anonmoly2.0071
Mean Motion15.4949676
Decay Rate0.00036281
L11 49276U 98067SV 21287.03095086 .00036281 00000-0 65173-3 0 9994
L22 49276 51.6392 115.0808 0006981 142.7079 2.0071 15.49496760 330

Live tracking and technical data element details for CAPSAT (NORAD 49276). CAPSAT can be tracked NOW for your location showing map with azimuth and elevation plus other details from your city location.

Track the satellite on the map from your city or location and see movement details for azimuth, elevation, latitude, longitude, range, height, and movement on the map or in text.







IsCatalogInMostPopularTable: catalog: 49276, numindb: -1

Insert: records affected: 1


GetName: 49276 CAPSAT

Hit Count: inserted at: Tue, 19 Oct 2021 08:43:42 GMT